| time (UTC) | temp F | wind direction | speed MPH | gust MPH | rain 1hr in | rain 24hr in | rain mn in | humidity % | barometer mb |
| 20260508030854 | 37 | 0 | 0.0 | 0.0 | 0.00 | 0.01 | 0.01 | 79 | 1005.9 |
| 20260508025054 | 38 | 0 | 0.0 | 0.0 | 0.00 | 0.01 | 0.01 | 78 | 1005.9 |
| 20260508024154 | 38 | 0 | 0.0 | 0.0 | 0.00 | 0.02 | 0.01 | 77 | 1005.9 |
| 20260508022354 | 40 | 0 | 0.0 | 0.0 | 0.00 | 0.02 | 0.01 | 76 | 1006.0 |
| 20260508021454 | 41 | 0 | 0.0 | 0.0 | 0.00 | 0.03 | 0.01 | 75 | 1005.9 |
| 20260508020554 | 41 | 0 | 0.0 | 0.0 | 0.00 | 0.04 | 0.01 | 73 | 1005.9 |
| 20260508015654 | 42 | 0 | 0.0 | 0.0 | 0.00 | 0.04 | 0.01 | 68 | 1005.8 |
| 20260508014754 | 42 | 280 | 0.0 | 3.0 | 0.00 | 0.05 | 0.01 | 69 | 1005.6 |
| 20260508013854 | 42 | 246 | 0.0 | 2.0 | 0.00 | 0.06 | 0.01 | 64 | 1005.5 |
| 20260508012954 | 42 | 211 | 0.0 | 2.0 | 0.00 | 0.06 | 0.01 | 69 | 1005.3 |
| 20260508012054 | 43 | 210 | 0.0 | 1.0 | 0.00 | 0.06 | 0.01 | 62 | 1005.2 |
| 20260508011154 | 43 | 210 | 0.0 | 2.0 | 0.00 | 0.07 | 0.01 | 66 | 1005.2 |
| 20260508010254 | 44 | 0 | 0.0 | 0.0 | 0.00 | 0.07 | 0.01 | 65 | 1005.2 |
| 20260508005354 | 45 | 0 | 0.0 | 0.0 | 0.00 | 0.07 | 0.01 | 64 | 1005.0 |
| 20260508003553 | 46 | 0 | 0.0 | 0.0 | 0.00 | 0.08 | 0.01 | 56 | 1004.8 |
| 20260508002654 | 46 | 210 | 0.0 | 1.0 | 0.00 | 0.08 | 0.01 | 55 | 1004.6 |
| 20260508001754 | 47 | 210 | 0.0 | 1.0 | 0.00 | 0.08 | 0.01 | 54 | 1004.4 |
| 20260507235955 | 48 | 210 | 0.0 | 3.0 | 0.00 | 0.08 | 0.01 | 54 | 1004.4 |
| 20260507235054 | 49 | 201 | 0.0 | 3.0 | 0.00 | 0.08 | 0.01 | 47 | 1004.3 |
| 20260507234154 | 49 | 181 | 0.0 | 1.0 | 0.00 | 0.10 | 0.01 | 48 | 1004.2 |
| 20260507231453 | 50 | 270 | 0.0 | 6.0 | 0.00 | 0.11 | 0.01 | 46 | 1004.0 |
| 20260507225653 | 51 | 260 | 1.0 | 4.0 | 0.00 | 0.12 | 0.01 | 46 | 1004.0 |
| 20260507224753 | 52 | 253 | 1.0 | 6.0 | 0.00 | 0.12 | 0.01 | 43 | 1004.2 |
| 20260507223853 | 52 | 260 | 2.0 | 7.0 | 0.00 | 0.12 | 0.01 | 45 | 1004.0 |
| 20260507222953 | 52 | 280 | 1.0 | 8.0 | 0.00 | 0.12 | 0.01 | 46 | 1004.0 |
| 20260507222053 | 52 | 255 | 1.0 | 5.0 | 0.00 | 0.12 | 0.01 | 43 | 1003.8 |
| 20260507221153 | 52 | 248 | 2.0 | 6.0 | 0.00 | 0.12 | 0.01 | 44 | 1003.7 |
| 20260507220253 | 52 | 299 | 2.0 | 8.0 | 0.00 | 0.12 | 0.01 | 44 | 1003.9 |
| 20260507215353 | 52 | 298 | 1.0 | 9.0 | 0.00 | 0.12 | 0.01 | 44 | 1003.9 |
| 20260507214453 | 52 | 250 | 2.0 | 6.0 | 0.00 | 0.12 | 0.01 | 44 | 1003.9 |
| 20260507213554 | 53 | 269 | 2.0 | 9.0 | 0.00 | 0.12 | 0.01 | 46 | 1003.9 |
| 20260507212653 | 52 | 275 | 1.0 | 4.0 | 0.00 | 0.12 | 0.01 | 48 | 1003.7 |
| 20260507211753 | 52 | 289 | 2.0 | 9.0 | 0.00 | 0.12 | 0.01 | 47 | 1003.8 |
| 20260507210853 | 52 | 317 | 1.0 | 5.0 | 0.00 | 0.12 | 0.01 | 43 | 1003.8 |
| 20260507205953 | 52 | 327 | 2.0 | 10.0 | 0.00 | 0.12 | 0.01 | 42 | 1003.7 |
| 20260507205053 | 53 | 323 | 2.0 | 10.0 | 0.00 | 0.12 | 0.01 | 44 | 1003.7 |
| 20260507204153 | 54 | 291 | 1.0 | 7.0 | 0.00 | 0.12 | 0.01 | 43 | 1003.8 |
| 20260507203253 | 54 | 285 | 2.0 | 9.0 | 0.00 | 0.12 | 0.01 | 41 | 1003.9 |
| 20260507202353 | 54 | 273 | 2.0 | 9.0 | 0.00 | 0.12 | 0.01 | 44 | 1003.8 |
| 20260507201453 | 54 | 228 | 1.0 | 4.0 | 0.00 | 0.12 | 0.01 | 43 | 1003.7 |
| 20260507195653 | 54 | 285 | 1.0 | 9.0 | 0.00 | 0.12 | 0.01 | 46 | 1003.8 |
| 20260507192953 | 53 | 272 | 2.0 | 8.0 | 0.00 | 0.12 | 0.01 | 47 | 1004.0 |
| 20260507191153 | 53 | 276 | 1.0 | 7.0 | 0.00 | 0.12 | 0.01 | 46 | 1004.1 |
| 20260507190253 | 53 | 246 | 1.0 | 7.0 | 0.00 | 0.12 | 0.01 | 50 | 1004.3 |
| 20260507185353 | 54 | 229 | 1.0 | 6.0 | 0.00 | 0.12 | 0.01 | 50 | 1004.4 |
| 20260507184453 | 53 | 256 | 1.0 | 5.0 | 0.00 | 0.13 | 0.01 | 50 | 1004.4 |
| 20260507183553 | 54 | 255 | 1.0 | 7.0 | 0.00 | 0.13 | 0.01 | 45 | 1004.6 |
| 20260507181753 | 54 | 270 | 1.0 | 6.0 | 0.00 | 0.14 | 0.01 | 44 | 1004.7 |
| 20260507180853 | 54 | 285 | 2.0 | 9.0 | 0.00 | 0.15 | 0.01 | 46 | 1004.6 |
| 20260507175053 | 54 | 281 | 2.0 | 11.0 | 0.00 | 0.15 | 0.01 | 49 | 1004.5 |
| 20260507174153 | 55 | 279 | 1.0 | 12.0 | 0.00 | 0.16 | 0.01 | 45 | 1004.6 |
| 20260507173253 | 54 | 254 | 1.0 | 7.0 | 0.00 | 0.16 | 0.01 | 52 | 1004.5 |
| 20260507171453 | 54 | 277 | 3.0 | 18.0 | 0.00 | 0.16 | 0.01 | 42 | 1004.7 |
| 20260507170553 | 54 | 243 | 1.0 | 9.0 | 0.00 | 0.16 | 0.01 | 48 | 1004.8 |
| 20260507165653 | 54 | 272 | 2.0 | 11.0 | 0.00 | 0.16 | 0.01 | 48 | 1005.1 |
| 20260507164753 | 53 | 269 | 2.0 | 7.0 | 0.00 | 0.16 | 0.01 | 49 | 1005.5 |
| 20260507163853 | 53 | 306 | 2.0 | 16.0 | 0.00 | 0.16 | 0.01 | 47 | 1005.2 |
| 20260507162953 | 53 | 262 | 2.0 | 10.0 | 0.00 | 0.16 | 0.01 | 55 | 1005.6 |
| 20260507162053 | 54 | 272 | 1.0 | 9.0 | 0.00 | 0.16 | 0.01 | 49 | 1005.6 |
| 20260507160253 | 53 | 273 | 2.0 | 9.0 | 0.00 | 0.16 | 0.01 | 54 | 1005.6 |
| 20260507155353 | 53 | 264 | 2.0 | 8.0 | 0.00 | 0.16 | 0.01 | 51 | 1005.6 |
| 20260507154453 | 53 | 247 | 2.0 | 9.0 | 0.00 | 0.16 | 0.01 | 54 | 1005.7 |
| 20260507153553 | 52 | 263 | 2.0 | 13.0 | 0.00 | 0.16 | 0.01 | 55 | 1005.9 |
| 20260507152653 | 51 | 295 | 2.0 | 14.0 | 0.00 | 0.16 | 0.01 | 65 | 1005.7 |
| 20260507151753 | 51 | 331 | 3.0 | 16.0 | 0.00 | 0.16 | 0.01 | 51 | 1005.8 |
| 20260507150853 | 51 | 321 | 2.0 | 16.0 | 0.00 | 0.16 | 0.01 | 56 | 1005.8 |
| 20260507145953 | 51 | 278 | 2.0 | 12.0 | 0.00 | 0.16 | 0.01 | 54 | 1006.1 |
| 20260507145052 | 50 | 267 | 1.0 | 8.0 | 0.00 | 0.16 | 0.01 | 62 | 1006.0 |
| 20260507144152 | 49 | 266 | 1.0 | 6.0 | 0.00 | 0.16 | 0.01 | 62 | 1005.9 |
| 20260507143252 | 48 | 298 | 2.0 | 11.0 | 0.00 | 0.16 | 0.01 | 69 | 1005.8 |
| 20260507142352 | 48 | 278 | 2.0 | 11.0 | 0.00 | 0.16 | 0.01 | 67 | 1005.8 |
| 20260507140552 | 47 | 278 | 2.0 | 8.0 | 0.00 | 0.16 | 0.01 | 68 | 1005.8 |
| 20260507135652 | 47 | 277 | 2.0 | 9.0 | 0.00 | 0.16 | 0.01 | 68 | 1005.7 |
| 20260507134752 | 46 | 259 | 2.0 | 9.0 | 0.00 | 0.16 | 0.01 | 77 | 1005.7 |
| 20260507133852 | 46 | 273 | 2.0 | 8.0 | 0.00 | 0.16 | 0.01 | 76 | 1005.6 |
| 20260507132952 | 46 | 265 | 2.0 | 9.0 | 0.00 | 0.16 | 0.01 | 76 | 1005.5 |
| 20260507132052 | 46 | 241 | 2.0 | 6.0 | 0.00 | 0.16 | 0.01 | 84 | 1005.6 |
| 20260507131152 | 45 | 243 | 2.0 | 8.0 | 0.00 | 0.16 | 0.01 | 85 | 1005.8 |
| 20260507130252 | 45 | 238 | 1.0 | 5.0 | 0.00 | 0.16 | 0.01 | 87 | 1005.6 |
| 20260507125352 | 45 | 232 | 1.0 | 5.0 | 0.00 | 0.16 | 0.01 | 90 | 1005.8 |
| 20260507124452 | 45 | 200 | 1.0 | 4.0 | 0.00 | 0.16 | 0.01 | 91 | 1005.7 |
| 20260507123552 | 44 | 249 | 1.0 | 4.0 | 0.00 | 0.16 | 0.01 | 92 | 1005.7 |
| 20260507122652 | 44 | 280 | 1.0 | 4.0 | 0.01 | 0.16 | 0.01 | 93 | 1005.5 |
| 20260507121752 | 43 | 293 | 1.0 | 8.0 | 0.01 | 0.16 | 0.01 | 93 | 1005.4 |
| 20260507120852 | 43 | 283 | 2.0 | 7.0 | 0.01 | 0.16 | 0.01 | 95 | 1005.3 |
| 20260507115952 | 42 | 256 | 1.0 | 5.0 | 0.01 | 0.16 | 0.01 | 95 | 1005.2 |
| 20260507115052 | 41 | 311 | 0.0 | 4.0 | 0.01 | 0.16 | 0.01 | 95 | 1005.1 |
| 20260507114152 | 41 | 310 | 0.0 | 1.0 | 0.01 | 0.16 | 0.01 | 95 | 1005.2 |
| 20260507113252 | 41 | 310 | 0.0 | 1.0 | 0.00 | 0.15 | 0.00 | 95 | 1005.3 |
| 20260507112352 | 40 | 310 | 0.0 | 1.0 | 0.00 | 0.15 | 0.00 | 95 | 1005.2 |
| 20260507111452 | 40 | 308 | 0.0 | 3.0 | 0.00 | 0.15 | 0.00 | 95 | 1005.2 |
| 20260507110552 | 39 | 299 | 0.0 | 2.0 | 0.00 | 0.15 | 0.00 | 95 | 1005.1 |
| 20260507105652 | 39 | 0 | 0.0 | 0.0 | 0.00 | 0.15 | 0.00 | 95 | 1005.2 |
| 20260507103853 | 38 | 0 | 0.0 | 0.0 | 0.00 | 0.15 | 0.00 | 95 | 1005.0 |
| 20260507102952 | 38 | 0 | 0.0 | 0.0 | 0.00 | 0.15 | 0.00 | 94 | 1004.8 |
| 20260507101152 | 38 | 0 | 0.0 | 0.0 | 0.00 | 0.15 | 0.00 | 94 | 1004.7 |
| 20260507100252 | 39 | 0 | 0.0 | 0.0 | 0.00 | 0.15 | 0.00 | 94 | 1005.0 |
| 20260507095352 | 39 | 0 | 0.0 | 0.0 | 0.00 | 0.15 | 0.00 | 94 | 1005.1 |
| 20260507094452 | 39 | 0 | 0.0 | 0.0 | 0.00 | 0.15 | 0.00 | 94 | 1005.0 |
| 20260507092652 | 40 | 299 | 0.0 | 2.0 | 0.00 | 0.15 | 0.00 | 94 | 1005.0 |
| 20260507091752 | 40 | 0 | 0.0 | 0.0 | 0.00 | 0.15 | 0.00 | 94 | 1005.0 |
| 20260507090852 | 40 | 299 | 0.0 | 1.0 | 0.00 | 0.15 | 0.00 | 94 | 1005.1 |
| 20260507085952 | 40 | 0 | 0.0 | 0.0 | 0.00 | 0.15 | 0.00 | 94 | 1005.4 |
| 20260507085052 | 40 | 0 | 0.0 | 0.0 | 0.00 | 0.15 | 0.00 | 94 | 1005.5 |
| 20260507084152 | 41 | 299 | 0.0 | 2.0 | 0.00 | 0.15 | 0.00 | 94 | 1005.2 |
| 20260507082352 | 41 | 290 | 0.0 | 3.0 | 0.00 | 0.15 | 0.00 | 94 | 1005.1 |
| 20260507081452 | 41 | 288 | 0.0 | 1.0 | 0.00 | 0.15 | 0.00 | 94 | 1005.0 |
| 20260507080552 | 41 | 289 | 0.0 | 3.0 | 0.00 | 0.15 | 0.00 | 94 | 1004.9 |
| 20260507075652 | 41 | 302 | 0.0 | 3.0 | 0.00 | 0.15 | 0.00 | 94 | 1005.0 |
| 20260507074752 | 41 | 306 | 0.0 | 4.0 | 0.00 | 0.15 | 0.00 | 94 | 1005.2 |
| 20260507073852 | 41 | 306 | 0.0 | 5.0 | 0.00 | 0.15 | 0.00 | 94 | 1005.2 |
| 20260507072952 | 41 | 299 | 0.0 | 1.0 | 0.00 | 0.15 | 0.00 | 94 | 1004.9 |
| 20260507072052 | 41 | 299 | 0.0 | 2.0 | 0.00 | 0.15 | 0.00 | 94 | 1004.9 |
| 20260507071151 | 41 | 326 | 0.0 | 1.0 | 0.00 | 0.15 | 0.00 | 94 | 1004.9 |
| 20260507070252 | 41 | 307 | 0.0 | 3.0 | 0.00 | 0.15 | 0.00 | 94 | 1004.4 |
| 20260507064452 | 41 | 0 | 0.0 | 0.0 | 0.00 | 0.15 | 0.00 | 94 | 1004.4 |
| 20260507063551 | 41 | 295 | 0.0 | 2.0 | 0.00 | 0.15 | 0.00 | 94 | 1004.3 |
| 20260507062652 | 41 | 295 | 0.0 | 4.0 | 0.00 | 0.15 | 0.00 | 94 | 1004.4 |
| 20260507060851 | 41 | 0 | 0.0 | 0.0 | 0.00 | 0.15 | 0.00 | 94 | 1004.7 |
| 20260507055951 | 41 | 278 | 0.0 | 3.0 | 0.00 | 0.15 | 0.00 | 94 | 1004.8 |
| 20260507055052 | 42 | 273 | 0.0 | 1.0 | 0.00 | 0.15 | 0.00 | 94 | 1004.9 |
| 20260507054152 | 42 | 0 | 0.0 | 0.0 | 0.00 | 0.15 | 0.00 | 94 | 1005.0 |
| 20260507053251 | 42 | 0 | 0.0 | 0.0 | 0.00 | 0.15 | 0.00 | 95 | 1005.4 |
| 20260507052351 | 42 | 0 | 0.0 | 0.0 | 0.00 | 0.15 | 0.00 | 94 | 1005.3 |
| 20260507051451 | 42 | 273 | 0.0 | 1.0 | 0.00 | 0.15 | 0.00 | 94 | 1005.1 |
| 20260507050551 | 43 | 273 | 0.0 | 3.0 | 0.00 | 0.15 | 0.00 | 95 | 1005.0 |
| 20260507045651 | 43 | 273 | 0.0 | 3.0 | 0.00 | 0.15 | 0.00 | 95 | 1005.0 |
| 20260507044751 | 43 | 273 | 0.0 | 1.0 | 0.00 | 0.15 | 0.00 | 95 | 1004.8 |
| 20260507043851 | 43 | 0 | 0.0 | 0.0 | 0.00 | 0.15 | 0.00 | 95 | 1004.9 |
| 20260507042951 | 43 | 274 | 0.0 | 1.0 | 0.00 | 0.15 | 0.00 | 95 | 1004.8 |
| 20260507042051 | 44 | 273 | 0.0 | 2.0 | 0.00 | 0.15 | 0.00 | 95 | 1004.8 |
| 20260507041151 | 44 | 0 | 0.0 | 0.0 | 0.00 | 0.15 | 0.00 | 95 | 1005.0 |
| 20260507040251 | 44 | 274 | 0.0 | 2.0 | 0.00 | 0.15 | 0.00 | 95 | 1004.9 |
| 20260507035351 | 44 | 275 | 0.0 | 2.0 | 0.00 | 0.15 | 0.15 | 95 | 1004.9 |
| 20260507033551 | 44 | 306 | 1.0 | 5.0 | 0.01 | 0.15 | 0.15 | 95 | 1004.6 |
| 20260507032651 | 45 | 322 | 0.0 | 5.0 | 0.01 | 0.15 | 0.15 | 95 | 1004.8 |
| 20260507031751 | 45 | 285 | 0.0 | 2.0 | 0.01 | 0.15 | 0.15 | 95 | 1004.7 |